Tracking 18980 objects as of 20-Feb-2018
HD Live streaming from Space Station
objects crossing your sky now

FENGYUN 1C DEB

Track FENGYUN 1C DEB now!
10-day predictions


NORAD ID: 32238
Int'l Code: 1999-025CWL
Perigee: 471.8 km
Apogee: 674.4 km
Inclination: 98.9 °
Period: 96.0 minutes
Semi major axis: 6944 km
RCS: 0.0079 m2 (small)
Launch date: May 10, 1999
Source: People's Republic of China (PRC)
Launch site: Taiyaun Space Center, China (TSC)

Note: This is SATELLITE DEBRIS
aabbcc
Your satellite tracking list
Your tracking list is empty




NASA's NSSDC Master Catalog

Two Line Element Set (TLE):
1 32238U 99025CWL 18051.06581451  .00002250  00000-0  14910-3 0  9995
2 32238  98.8660 138.3110 0145861 162.3281 198.3090 15.00311139576510
Source of the keplerian elements: AFSPC